Torna al catalogo

FENGYUN 1C DEB

AttivoLEO
NORAD 32178·DEBRIS·🇨🇳 China

Lanciato May 10, 1999 da Taiyuan Satellite Launch Center

Loading…

Prossimi Passaggi (prossime 24 ore)

TLE

AggiornatoSource: Space-Track

Epoca: Sep 14, 2026, 08:56 UTC

1 32178U 99025CTY 26257.37277648  .00001175  00000-0  51299-3 0  9995
2 32178 100.2895 310.4620 0092211 284.2423  74.8523 14.24112864679255

Traccia FENGYUN 1C DEB in tempo reale con AllMySat

Download on the App Store